Sisseton, SD

3:31 PM CDT on May 25, 2017 (GMT -0500)
Sisseton

Weather History for K8D3 - July, 2013

Change the Weather History Date:

Saturday, July 27, 2013

  Actual Average Record
Temperature  
Mean Temperature 59 °F 72 °F  
Max Temperature 71 °F 83 °F 103 °F (1959)
Min Temperature 46 °F 60 °F 46 °F (2013)
Degree Days  
Heating Degree Days 6 0  
Month to date heating degree days 12 3  
Since 1 June heating degree days 81 65  
Since 1 July heating degree days 12 3  
Cooling Degree Days 0 7  
Month to date cooling degree days 201 178  
Year to date cooling degree days 343 295  
Since 1 June cooling degree days 318 272  
Growing Degree Days 8 (Base 50)    
Moisture  
Dew Point 46 °F    
Average Humidity 70    
Maximum Humidity 100    
Minimum Humidity 40    
Precipitation  
Precipitation 0.00 in 0.10 in 1.63 in (1991)
Month to date precipitation 2.61 3.16  
Year to date precipitation 17.53 13.88  
Sea Level Pressure  
Sea Level Pressure 30.09 in    
Wind  
Wind Speed 9 mph (North)    
Max Wind Speed 18 mph    
Max Gust Speed 25 mph    
T = Trace of Precipitation, MM = Missing Value Source: NWS Daily Summary

Daily Weather History Graph

Daily Weather History Graph

Search for Another Location

Airport or City:

Trip Planner

Search our weather history database for the weather conditions in past years. The results will help you decide how hot, cold, wet, or windy it might be!

Date:

Astronomy

Jul. 27, 2013 Rise Set
Actual Time 6:05 AM CDT 9:02 PM CDT
Civil Twilight 5:30 AM CDT 9:37 PM CDT
Nautical Twilight 4:46 AM CDT 10:21 PM CDT
Astronomical Twilight 3:52 AM CDT 11:14 PM CDT
Moon 11:27 PM CDT (7/27) 12:08 PM CDT (7/27)
Length of Visible Light 16h 06m
Length of Day
14h 56m
Waning Gibbous, 70% of the Moon is Illuminated
Jul 27
Waning Gibbous
Jul 29
Last Quarter
Aug 6
New
Aug 14
First Quarter
Aug 20
Full

Hourly Weather History & Observations

Time (CDT) Temp. Windchill Dew Point Humidity Pressure Visibility Wind Dir Wind Speed Gust Speed Precip Events Conditions
12:56 AM 50.0 °F - 46.9 °F 89% 30.14 in - NW 4.6 mph - N/A   Unknown
1:56 AM 52.0 °F - 48.0 °F 86% 30.14 in - North 6.9 mph - N/A   Unknown
2:56 AM 52.0 °F - 48.0 °F 86% 30.14 in - NNW 8.1 mph - N/A   Unknown
3:56 AM 48.9 °F - 48.0 °F 97% 30.15 in - NNW 6.9 mph - N/A   Unknown
4:56 AM 48.0 °F - 46.0 °F 93% 30.16 in - North 6.9 mph - N/A   Unknown
5:56 AM 46.0 °F 42.5 °F 45.0 °F 96% 30.17 in - NNW 6.9 mph - N/A   Unknown
6:56 AM 48.9 °F - 46.0 °F 90% 30.17 in - North 6.9 mph - N/A   Unknown
7:56 AM 52.0 °F - 46.9 °F 83% 30.17 in - NNW 8.1 mph - N/A   Unknown
8:56 AM 55.9 °F - 46.9 °F 72% 30.16 in - North 8.1 mph - N/A   Unknown
9:56 AM 61.0 °F - 48.0 °F 62% 30.14 in - North 12.7 mph 19.6 mph N/A   Unknown
10:56 AM 64.0 °F - 46.0 °F 52% 30.12 in - North 13.8 mph 21.9 mph N/A   Unknown
11:56 AM 64.9 °F - 45.0 °F 48% 30.11 in - North 12.7 mph 25.3 mph N/A   Unknown
12:56 PM 64.9 °F - 45.0 °F 48% 30.09 in - North 12.7 mph 19.6 mph N/A   Unknown
1:56 PM 68.0 °F - 46.0 °F 45% 30.07 in - NNW 12.7 mph - N/A   Unknown
2:56 PM 66.9 °F - 45.0 °F 45% 30.05 in - North 13.8 mph - N/A   Unknown
3:56 PM 69.1 °F - 45.0 °F 42% 30.04 in - North 12.7 mph 20.7 mph N/A   Unknown
4:56 PM 70.0 °F - 44.1 °F 39% 30.03 in - NNE 11.5 mph 20.7 mph N/A   Unknown
5:56 PM 68.0 °F - 44.1 °F 42% 30.03 in - NNE 11.5 mph - N/A   Unknown
6:56 PM 66.9 °F - 44.1 °F 44% 30.02 in - NNE 9.2 mph - N/A   Unknown
7:56 PM 64.9 °F - 46.0 °F 50% 30.01 in - NNE 8.1 mph - N/A   Unknown
8:56 PM 57.9 °F - 48.9 °F 72% 30.03 in - NNW 5.8 mph - N/A   Unknown
9:56 PM 54.0 °F - 48.0 °F 80% 30.04 in - NW 4.6 mph - N/A   Unknown
10:56 PM 52.0 °F - 46.9 °F 83% 30.04 in - NNW 5.8 mph - N/A   Unknown
11:56 PM 52.0 °F - 46.0 °F 80% 30.04 in - NW 5.8 mph - N/A   Unknown